DW6417 Weather Reports


Display with metric or nautical units.
time (UTC)temp
F
wind
direction
speed
MPH
gust
MPH
rain 1hr
in
rain 24hr
in
rain mn
in
humidity
%
barometer
mb
20260502181421 66 333 2.0 3.0 0.20 0.20 0.20 83 1012.6
20260502180921 67 330 2.0 5.0 0.20 0.20 0.20 83 1012.2
20260502180628 67 338 3.0 5.0 0.20 0.20 0.20 83 1012.1
20260502180421 67 221 2.0 5.0 0.20 0.20 0.20 83 1012.1
20260502170421 75 135 2.0 6.0 0.00 0.00 0.00 60 1011.6
20260502163921 75 198 1.0 5.0 0.00 0.00 0.00 57 1012.2
20260502163628 75 196 2.0 5.0 0.00 0.00 0.00 56 1012.3
20260502162921 75 200 1.0 3.0 0.00 0.00 0.00 55 1012.3
20260502162421 76 201 1.0 3.0 0.00 0.00 0.00 54 1012.4
20260502161921 76 201 1.0 3.0 0.00 0.00 0.00 52 1012.5
20260502161628 76 201 1.0 3.0 0.00 0.00 0.00 49 1012.5
20260502160921 76 200 2.0 4.0 0.00 0.00 0.00 51 1012.6
20260502160628 76 199 2.0 4.0 0.00 0.00 0.00 51 1012.5
20260502160421 76 201 2.0 4.0 0.00 0.00 0.00 51 1012.6
20260502151921 76 185 1.0 5.0 0.00 0.00 0.00 54 1013.1
20260502151629 76 180 1.0 4.0 0.00 0.00 0.00 53 1013.1
20260502151422 76 197 1.0 4.0 0.00 0.00 0.00 53 1013.1
20260502150628 76 201 1.0 4.0 0.00 0.00 0.00 54 1013.4
20260502150421 76 201 1.0 4.0 0.00 0.00 0.00 54 1013.4
20260502130628 80 252 5.0 11.0 0.00 0.00 0.00 47 1014.7
20260502130421 80 264 4.0 12.0 0.00 0.00 0.00 47 1014.7
20260502123628 79 221 4.0 9.0 0.00 0.00 0.00 47 1015.2
20260502123422 79 203 4.0 9.0 0.00 0.00 0.00 47 1015.2
20260502122921 80 204 5.0 10.0 0.00 0.00 0.00 46 1015.3
20260502122422 80 204 4.0 10.0 0.00 0.00 0.00 46 1015.2
20260502121921 80 244 5.0 15.0 0.00 0.00 0.00 48 1015.3
20260502121629 80 301 6.0 15.0 0.00 0.00 0.00 46 1015.4
20260502121421 80 239 6.0 15.0 0.00 0.00 0.00 46 1015.4
20260502120921 79 202 5.0 10.0 0.00 0.00 0.00 47 1015.3
20260502120628 79 124 4.0 9.0 0.00 0.00 0.00 47 1015.3
20260502120422 79 195 4.0 10.0 0.00 0.00 0.00 47 1015.4
20260502115628 79 195 3.0 7.0 0.00 0.00 0.00 48 1015.6
20260502114921 79 203 4.0 11.0 0.00 0.00 0.00 48 1015.7
20260502114628 78 236 4.0 11.0 0.00 0.00 0.00 49 1015.7
20260502114421 78 184 4.0 11.0 0.00 0.00 0.00 49 1015.7
20260502113922 78 186 4.0 9.0 0.00 0.00 0.00 49 1015.8
20260502113628 78 178 3.0 9.0 0.00 0.00 0.00 50 1015.9
20260502113421 78 209 3.0 9.0 0.00 0.00 0.00 50 1015.9
20260502112921 78 221 3.0 8.0 0.00 0.00 0.00 50 1015.9
20260502112630 77 225 3.0 8.0 0.00 0.00 0.00 51 1015.9
20260502112421 77 234 4.0 9.0 0.00 0.00 0.00 51 1015.9
20260502111921 77 210 5.0 13.0 0.00 0.00 0.00 51 1015.9
20260502111421 76 213 5.0 13.0 0.00 0.00 0.00 50 1015.9
20260502110921 76 218 5.0 10.0 0.00 0.00 0.00 50 1016.0
20260502110628 76 215 5.0 10.0 0.00 0.00 0.00 50 1016.1
20260502110421 76 208 6.0 15.0 0.00 0.00 0.00 50 1016.1
20260502105921 76 230 6.0 15.0 0.00 0.00 0.00 49 1016.2
20260502105628 76 263 5.0 13.0 0.00 0.00 0.00 50 1016.2
20260502105421 76 234 4.0 13.0 0.00 0.00 0.00 50 1016.2
20260502104922 76 238 5.0 12.0 0.00 0.00 0.00 49 1016.5
20260502104628 76 210 5.0 12.0 0.00 0.00 0.00 51 1016.4
20260502104421 76 237 4.0 12.0 0.00 0.00 0.00 51 1016.4
20260502103921 75 234 4.0 10.0 0.00 0.00 0.00 49 1016.4
20260502103628 75 253 4.0 10.0 0.00 0.00 0.00 50 1016.4
20260502103421 75 225 4.0 10.0 0.00 0.00 0.00 50 1016.4
20260502102921 75 206 4.0 9.0 0.00 0.00 0.00 49 1016.5
20260502102628 75 211 3.0 9.0 0.00 0.00 0.00 50 1016.6
20260502102421 75 222 4.0 11.0 0.00 0.00 0.00 50 1016.5
20260502101628 74 248 4.0 7.0 0.00 0.00 0.00 50 1016.8
20260502100922 74 246 3.0 7.0 0.00 0.00 0.00 50 1016.8
20260502100628 74 249 3.0 6.0 0.00 0.00 0.00 53 1016.8
20260502090921 70 178 3.0 7.0 0.00 0.00 0.00 53 1017.1
20260502071421 63 173 2.0 6.0 0.00 0.00 0.00 54 1017.4
20260502070922 62 164 1.0 3.0 0.00 0.00 0.00 56 1017.5
20260502070628 61 164 1.0 3.0 0.00 0.00 0.00 58 1017.4
20260502065922 61 163 1.0 4.0 0.00 0.00 0.00 59 1017.4
20260502065628 60 163 2.0 4.0 0.00 0.00 0.00 60 1017.4
20260502065421 60 163 1.0 4.0 0.00 0.00 0.00 60 1017.5
20260502064923 60 162 1.0 3.0 0.00 0.00 0.00 60 1017.5
20260502064628 59 163 0.0 2.0 0.00 0.00 0.00 61 1017.4
20260502064421 59 163 1.0 2.0 0.00 0.00 0.00 61 1017.4
20260502063422 58 163 1.0 3.0 0.00 0.00 0.00 64 1017.4
20260502062628 57 163 0.0 1.0 0.00 0.00 0.00 64 1017.3
20260502062422 57 163 1.0 3.0 0.00 0.00 0.00 64 1017.3
20260502061921 57 163 1.0 3.0 0.00 0.00 0.00 65 1017.4
20260502061422 56 162 1.0 3.0 0.00 0.00 0.00 66 1017.5
20260502060922 56 162 1.0 3.0 0.00 0.00 0.00 67 1017.4
20260502060628 55 163 1.0 3.0 0.00 0.00 0.00 68 1017.4
20260502060422 55 163 1.0 3.0 0.00 0.00 0.00 68 1017.5
20260502055923 55 163 1.0 3.0 0.00 0.00 0.00 68 1017.4
20260502055421 54 0 0.0 2.0 0.00 0.00 0.00 70 1017.2
20260502054422 51 0 0.0 1.0 0.00 0.00 0.00 73 1017.0
20260502053923 50 0 0.0 2.0 0.00 0.00 0.00 74 1017.1
20260502053628 49 163 1.0 2.0 0.00 0.00 0.00 76 1017.2
20260502053422 49 0 0.0 2.0 0.00 0.00 0.00 76 1017.2
20260502052922 49 0 0.0 1.0 0.00 0.00 0.00 75 1017.3
20260502052424 48 0 0.0 1.0 0.00 0.00 0.00 76 1017.2
20260502051922 47 0 0.0 0.0 0.00 0.00 0.00 76 1017.2
20260502051628 47 163 0.0 0.0 0.00 0.00 0.00 77 1017.2
20260502051423 47 0 0.0 1.0 0.00 0.00 0.00 77 1017.2
20260502050628 46 163 0.0 1.0 0.00 0.00 0.00 80 1017.0
20260502045922 45 0 0.0 0.0 0.00 0.00 0.00 79 1017.1
20260502045628 45 163 0.0 0.0 0.00 0.00 0.00 79 1017.2
20260502044628 45 163 0.0 1.0 0.00 0.00 0.00 79 1017.2
20260502044422 45 0 0.0 1.0 0.00 0.00 0.00 79 1017.2
20260502043922 44 0 0.0 1.0 0.00 0.00 0.00 79 1017.2
20260502043628 44 163 0.0 0.0 0.00 0.00 0.00 79 1017.2
20260502043421 44 0 0.0 0.0 0.00 0.00 0.00 79 1017.3
20260502042922 44 0 0.0 1.0 0.00 0.00 0.00 79 1017.3
20260502042629 44 163 0.0 1.0 0.00 0.00 0.00 79 1017.2
20260502042422 44 0 0.0 1.0 0.00 0.00 0.00 79 1017.3
20260502041921 44 0 0.0 0.0 0.00 0.00 0.00 79 1017.3
20260502041628 44 163 0.0 0.0 0.00 0.00 0.00 79 1017.4
20260502041422 44 0 0.0 0.0 0.00 0.00 0.00 79 1017.4
20260502040921 44 0 0.0 0.0 0.00 0.00 0.00 79 1017.4
20260502040628 44 163 0.0 0.0 0.00 0.00 0.00 78 1017.4
20260502040422 44 0 0.0 0.0 0.00 0.00 0.00 78 1017.4
20260502035628 44 163 0.0 0.0 0.00 0.00 0.00 78 1017.4
20260502035422 44 0 0.0 0.0 0.00 0.00 0.00 78 1017.4
20260502034922 44 0 0.0 0.0 0.00 0.00 0.00 78 1017.4
20260502034628 44 163 0.0 0.0 0.00 0.00 0.00 78 1017.4
20260502034422 44 0 0.0 0.0 0.00 0.00 0.00 78 1017.5
20260502033922 44 0 0.0 0.0 0.00 0.00 0.00 78 1017.4
20260502033422 44 0 0.0 0.0 0.00 0.00 0.00 78 1017.5
20260502032629 44 163 0.0 0.0 0.00 0.00 0.00 78 1017.4
20260502032422 44 0 0.0 1.0 0.00 0.00 0.00 78 1017.4
20260502031922 44 0 0.0 1.0 0.00 0.00 0.00 78 1017.5
20260502031628 44 163 0.0 1.0 0.00 0.00 0.00 78 1017.5
20260502031422 44 0 0.0 1.0 0.00 0.00 0.00 78 1017.6
20260502030922 45 0 0.0 0.0 0.00 0.00 0.00 78 1017.5
20260502030629 45 163 0.0 0.0 0.00 0.00 0.00 78 1017.6
20260502030422 45 0 0.0 0.0 0.00 0.00 0.00 78 1017.5
20260502025921 45 0 0.0 0.0 0.00 0.00 0.00 78 1017.6
20260502025628 45 163 0.0 0.0 0.00 0.00 0.00 78 1017.5
20260502025422 45 0 0.0 2.0 0.00 0.00 0.00 78 1017.6
20260502024921 45 0 0.0 2.0 0.00 0.00 0.00 78 1017.6
20260502024628 45 163 0.0 2.0 0.00 0.00 0.00 77 1017.6
20260502024421 45 0 0.0 2.0 0.00 0.00 0.00 77 1017.7
20260502023922 45 0 0.0 0.0 0.00 0.00 0.00 77 1017.7
20260502023628 45 163 0.0 0.0 0.00 0.00 0.00 77 1017.8
20260502023422 45 0 0.0 0.0 0.00 0.00 0.00 77 1017.8
20260502022922 45 163 1.0 2.0 0.00 0.00 0.00 77 1017.8
20260502022629 45 163 1.0 2.0 0.00 0.00 0.00 76 1017.9
20260502021922 46 0 0.0 2.0 0.00 0.00 0.00 77 1017.8
20260502021629 46 163 0.0 0.0 0.00 0.00 0.00 76 1017.9
20260502021422 46 0 0.0 0.0 0.00 0.00 0.00 76 1017.8
20260502020922 46 0 0.0 0.0 0.00 0.00 0.00 76 1017.9
20260502020629 46 163 0.0 0.0 0.00 0.00 0.00 76 1017.9
20260502020421 46 0 0.0 0.0 0.00 0.00 0.00 76 1017.9
20260502015422 46 0 0.0 0.0 0.00 0.00 0.00 75 1018.0
20260502014922 46 0 0.0 0.0 0.00 0.00 0.00 75 1018.0
20260502014628 46 163 0.0 0.0 0.00 0.00 0.00 75 1018.0
20260502014422 46 0 0.0 0.0 0.00 0.00 0.00 75 1018.0
20260502013922 47 0 0.0 0.0 0.00 0.00 0.00 75 1018.1
20260502013629 47 163 0.0 0.0 0.00 0.00 0.00 74 1018.1
20260502013422 47 0 0.0 0.0 0.00 0.00 0.00 74 1018.1
20260502012922 47 0 0.0 0.0 0.00 0.00 0.00 74 1018.1
20260502012629 47 163 0.0 0.0 0.00 0.00 0.00 74 1018.1
20260502012422 47 0 0.0 0.0 0.00 0.00 0.00 74 1018.1
20260502011922 47 0 0.0 0.0 0.00 0.00 0.00 74 1018.1
20260502011629 47 163 0.0 0.0 0.00 0.00 0.00 73 1018.1
20260502011422 47 0 0.0 0.0 0.00 0.00 0.00 73 1018.1
20260502010922 48 0 0.0 0.0 0.00 0.00 0.00 73 1018.2
20260502010629 48 163 0.0 0.0 0.00 0.00 0.00 73 1018.2
20260502010422 48 0 0.0 0.0 0.00 0.00 0.00 73 1018.2
20260502005922 48 0 0.0 0.0 0.00 0.00 0.00 73 1018.2
20260502005628 48 163 0.0 0.0 0.00 0.00 0.00 72 1018.3
20260502005422 48 0 0.0 0.0 0.00 0.00 0.00 72 1018.3
20260502004922 48 0 0.0 0.0 0.00 0.00 0.00 72 1018.3
20260502004629 48 163 0.0 0.0 0.00 0.00 0.00 71 1018.4
20260502004422 48 0 0.0 0.0 0.00 0.00 0.00 71 1018.4
20260502003629 49 163 0.0 0.0 0.00 0.00 0.00 71 1018.4
20260502003422 49 0 0.0 0.0 0.00 0.00 0.00 71 1018.4
20260502002922 49 0 0.0 1.0 0.00 0.00 0.00 70 1018.4
20260502002629 49 163 0.0 1.0 0.00 0.00 0.00 70 1018.6
20260502002422 49 0 0.0 1.0 0.00 0.00 0.00 70 1018.5
20260502001922 49 0 0.0 0.0 0.00 0.00 0.00 70 1018.6
20260502001628 49 163 0.0 0.0 0.00 0.00 0.00 70 1018.7
20260502001422 49 0 0.0 0.0 0.00 0.00 0.00 70 1018.7
20260502000922 50 0 0.0 0.0 0.00 0.00 0.00 70 1018.6
20260502000424 50 0 0.0 0.0 0.00 0.00 0.00 69 1018.8
20260501235922 50 0 0.0 0.0 0.00 0.00 0.00 69 1018.9
20260501235629 51 163 0.0 0.0 0.00 0.00 0.00 68 1018.9
20260501235422 51 0 0.0 0.0 0.00 0.00 0.00 68 1018.9
20260501234922 51 0 0.0 0.0 0.00 0.00 0.00 67 1019.0
20260501234628 51 163 0.0 0.0 0.00 0.00 0.00 66 1019.0
20260501233922 51 0 0.0 0.0 0.00 0.00 0.00 66 1019.1
20260501233629 51 163 0.0 0.0 0.00 0.00 0.00 65 1019.1
20260501233422 51 0 0.0 0.0 0.00 0.00 0.00 65 1019.1
20260501232629 52 163 0.0 0.0 0.00 0.00 0.00 64 1019.1
20260501232422 52 0 0.0 0.0 0.00 0.00 0.00 64 1019.2
20260501231922 52 0 0.0 0.0 0.00 0.00 0.00 64 1019.2
20260501231629 53 163 0.0 0.0 0.00 0.00 0.00 64 1019.2
20260501231423 53 0 0.0 0.0 0.00 0.00 0.00 64 1019.2
20260501230922 53 0 0.0 0.0 0.00 0.00 0.00 63 1019.3
20260501230423 53 0 0.0 0.0 0.00 0.00 0.00 62 1019.2
20260501225422 54 0 0.0 0.0 0.00 0.00 0.00 62 1019.3
20260501224923 54 0 0.0 0.0 0.00 0.00 0.00 62 1019.2
20260501224629 55 163 0.0 0.0 0.00 0.00 0.00 62 1019.2
20260501224422 55 0 0.0 0.0 0.00 0.00 0.00 62 1019.3
20260501223922 55 0 0.0 0.0 0.00 0.00 0.00 61 1019.3
20260501223422 56 0 0.0 1.0 0.00 0.00 0.00 60 1019.2
20260501222922 56 0 0.0 2.0 0.00 0.00 0.00 59 1019.3
20260501222629 56 163 0.0 2.0 0.00 0.00 0.00 57 1019.2
20260501222422 56 0 0.0 2.0 0.00 0.00 0.00 57 1019.3
20260501221629 58 163 0.0 1.0 0.00 0.00 0.00 52 1019.2
20260501221422 58 0 0.0 1.0 0.00 0.00 0.00 54 1019.2
20260501220922 58 0 0.0 1.0 0.00 0.00 0.00 52 1019.2
20260501220629 58 163 0.0 0.0 0.00 0.00 0.00 50 1019.3
20260501220422 58 0 0.0 1.0 0.00 0.00 0.00 50 1019.3
20260501215630 59 163 0.0 2.0 0.00 0.00 0.00 49 1019.3
20260501215422 59 163 1.0 2.0 0.00 0.00 0.00 49 1019.3
20260501214922 59 162 1.0 3.0 0.00 0.00 0.00 48 1019.3
20260501214629 59 163 1.0 3.0 0.00 0.00 0.00 47 1019.3
20260501214422 59 162 1.0 5.0 0.00 0.00 0.00 47 1019.3
20260501213922 60 162 1.0 5.0 0.00 0.00 0.00 47 1019.3
20260501213629 61 162 1.0 2.0 0.00 0.00 0.00 46 1019.3
20260501213423 60 161 1.0 2.0 0.00 0.00 0.00 48 1019.4
20260501212922 61 161 1.0 2.0 0.00 0.00 0.00 46 1019.4
20260501212422 61 161 1.0 3.0 0.00 0.00 0.00 45 1019.3
20260501211922 61 0 0.0 3.0 0.00 0.00 0.00 44 1019.4
20260501211422 62 161 1.0 4.0 0.00 0.00 0.00 44 1019.3
20260501210922 62 161 1.0 4.0 0.00 0.00 0.00 43 1019.3
20260501210629 62 162 1.0 2.0 0.00 0.00 0.00 43 1019.3
20260501210422 62 161 1.0 4.0 0.00 0.00 0.00 43 1019.3
20260501205922 62 163 1.0 5.0 0.00 0.00 0.00 42 1019.3
20260501205629 63 162 2.0 5.0 0.00 0.00 0.00 42 1019.3
20260501205422 63 164 2.0 5.0 0.00 0.00 0.00 42 1019.3
20260501204922 63 166 2.0 5.0 0.00 0.00 0.00 43 1019.3
20260501204629 63 167 2.0 4.0 0.00 0.00 0.00 42 1019.3
20260501204422 63 173 2.0 7.0 0.00 0.00 0.00 42 1019.3
20260501203922 63 168 2.0 7.0 0.00 0.00 0.00 41 1019.3
20260501203629 63 176 2.0 6.0 0.00 0.00 0.00 42 1019.3
20260501203422 63 148 2.0 6.0 0.00 0.00 0.00 42 1019.4
20260501202922 64 143 1.0 4.0 0.00 0.00 0.00 41 1019.3
20260501202629 64 143 0.0 2.0 0.00 0.00 0.00 41 1019.3
20260501202422 64 141 1.0 4.0 0.00 0.00 0.00 41 1019.4
20260501201922 64 140 1.0 4.0 0.00 0.00 0.00 40 1019.3
20260501201629 65 140 0.0 3.0 0.00 0.00 0.00 40 1019.3
20260501200922 65 140 1.0 3.0 0.00 0.00 0.00 40 1019.3
20260501200629 66 140 0.0 2.0 0.00 0.00 0.00 38 1019.3
20260501195922 66 0 0.0 2.0 0.00 0.00 0.00 38 1019.3
20260501195629 66 140 0.0 2.0 0.00 0.00 0.00 38 1019.3
20260501195422 66 139 1.0 4.0 0.00 0.00 0.00 38 1019.3
20260501194922 66 139 1.0 4.0 0.00 0.00 0.00 38 1019.3
20260501194629 67 139 1.0 3.0 0.00 0.00 0.00 38 1019.3
20260501194422 67 139 1.0 4.0 0.00 0.00 0.00 38 1019.3
20260501193922 67 139 1.0 4.0 0.00 0.00 0.00 37 1019.3
20260501193629 67 140 1.0 2.0 0.00 0.00 0.00 36 1019.2
20260501193423 67 140 1.0 3.0 0.00 0.00 0.00 36 1019.2
20260501192629 68 140 1.0 4.0 0.00 0.00 0.00 36 1019.2
20260501192422 68 139 1.0 4.0 0.00 0.00 0.00 36 1019.3
20260501191422 69 139 1.0 3.0 0.00 0.00 0.00 35 1019.2
20260501190922 69 139 1.0 3.0 0.00 0.00 0.00 35 1019.2
20260501190629 69 140 1.0 3.0 0.00 0.00 0.00 34 1019.1
20260501190423 69 139 1.0 4.0 0.00 0.00 0.00 34 1019.2
20260501185922 70 139 1.0 4.0 0.00 0.00 0.00 33 1019.1
20260501185629 70 140 1.0 4.0 0.00 0.00 0.00 33 1019.1
20260501184922 70 168 2.0 6.0 0.00 0.00 0.00 33 1019.2
20260501184629 70 184 2.0 6.0 0.00 0.00 0.00 32 1019.1
20260501183629 71 140 2.0 4.0 0.00 0.00 0.00 32 1019.1
20260501183422 71 140 1.0 4.0 0.00 0.00 0.00 32 1019.2
20260501182922 71 131 1.0 3.0 0.00 0.00 0.00 32 1019.1
20260501182629 71 141 1.0 3.0 0.00 0.00 0.00 31 1019.2
20260501182422 71 121 2.0 8.0 0.00 0.00 0.00 31 1019.2
20260501181923 71 132 2.0 8.0 0.00 0.00 0.00 31 1019.2
20260501181629 72 146 1.0 4.0 0.00 0.00 0.00 31 1019.2